Regional Weather Roundup
Issued by NWS

Home | Current Version | Previous Version | Text Only | Print | Product List | Glossary Off
Versions: 1 2 3 4 5 6 7 8 9 10 11 12 13 14 15 16 17 18 19 20 21 22 23 24 25 26 27 28 29 30 31 32 33 34 35 36 37 38 39 40 41 42 43 44 45 46 47 48 49 50

000
ASUS43 KLSX 230507
RWRMO

WEATHER SUMMARY FOR MISSOURI
NATIONAL WEATHER SERVICE SPRINGFIELD MO
1100 PM CST WED FEB 22 2017

NOTE: "FAIR" INDICATES FEW OR NO CLOUDS BELOW 12,000 FEET WITH NO
       SIGNIFICANT WEATHER AND/OR OBSTRUCTIONS TO VISIBILITY.
       CURRENT SKY AND/OR WEATHER CONDITIONS ARE NOT AVAILABLE FOR
       CHILLICOTHE AND FARMINGTON.

MOZ001>031-035>038-043-044-053-054-230600-
...NORTHERN AND WESTERN MISSOURI...

CITY           SKY/WX    TMP DP  RH WIND       PRES   REMARKS
KANSAS CTY INT CLEAR     56  38  50 NE9       29.71R
KANSAS C DTWN  CLEAR     52  37  56 CALM      29.71R
LEE`S SUMMIT   CLEAR     61  36  39 N5        29.71R
ST JOSEPH      CLEAR     51  39  63 N10       29.73R
CHILLICOTHE      N/A     58  39  49 NE6       29.73R
KIRKSVILLE     PTCLDY    46  41  82 N3        29.73R

$$
MOZ066>068-077>081-088>096-101>105-230600-
...SOUTHWEST MISSOURI...

CITY           SKY/WX    TMP DP  RH WIND       PRES   REMARKS
SPRINGFIELD    CLEAR     58  54  86 S13       29.73S
JOPLIN         CLEAR     59  48  67 S10       29.70F
BRANSON        CLEAR     59  55  88 S7        29.77S

$$
MOZ032>034-039>042-045>050-055>058-069>072-230600-
...CENTRAL MISSOURI...

CITY           SKY/WX    TMP DP  RH WIND       PRES   REMARKS
COLUMBIA       CLOUDY    55  52  89 S7        29.71R
JEFFERSON CITY PTCLDY    59  53  80 E3        29.71R
ROLLA          PTCLDY    56  54  93 S15       29.73S
SEDALIA        CLEAR     61  52  72 S8        29.71R
WHITEMAN AFB   PTCLDY    52  44  74 S10       29.68S
WARRENSBURG    PTCLDY    61  39  44 SW10      29.68S
OSAGE BEACH    CLEAR     59  54  83 S8        29.73S

$$
MOZ051-052-059>065-230600-
...EAST CENTRAL MISSOURI...

CITY           SKY/WX    TMP DP  RH WIND       PRES   REMARKS
ST LOUIS INTL  MOCLDY    63  53  70 SW12      29.73R
SPIRIT OF STL  MOCLDY    60  55  83 SW6       29.72R
ST CHARLES     PTCLDY    54  52  93 CALM      29.72R

$$
MOZ072>076-082>087-097>100-106>115-230600-
...SOUTH CENTRAL AND SOUTHEAST MISSOURI...

CITY           SKY/WX    TMP DP  RH WIND       PRES   REMARKS
CAPE GIRARDEAU CLOUDY    60  55  83 SW8       29.78R
FARMINGTON     CLEAR     56  53  90 SW8       29.77S
POPLAR BLUFF   CLEAR     55  54  96 CALM      29.79R
WEST PLAINS    CLEAR     54  53  97 S5        29.80S

$$


USA.gov is the U.S. government's official web portal to all federal, state and local government web resources and services.